User: anonymous   Login
Location: Brede
(50.9167°N, 0.6000°E)
Time: 09:46:35
(UTC+00:00)
Language:

CSL-04 DEB - Orbit

View from above orbital plane
View from above orbital plane
View from above satellite
View from above satellite

Ground track
Ground track

The orbit data is extracted from the following two-line orbital elements,

1 26121U 99057H   20293.75158462 +.00000729 +00000-0 +73696-4 0  9999
2 26121 098.7518 098.5201 0059568 165.8321 194.4584 14.93556684116156
Epoch (UTC): 19 October 2020 18:02:16
Eccentricity: 0.0059568
inclination: 98.7518°
perigee height: 545 km
apogee height: 628 km
right ascension of ascending node: 98.5201°
argument of perigee: 165.8321°
revolutions per day: 14.93556684
mean anomaly at epoch: 194.4584°
orbit number at epoch: 11615

The dashed part of the orbit path shows where the satellite is in the earth's shadow,  

DLR